Location: Cottbus
(51.7000°N, 14.3000°E)
Time: 18:58:16
(UTC+01:00)

ISS - Visible Passes

Search period start: 15 December 2017 00:00
Search period end: 25 December 2017 00:00
Orbit: 402 x 407 km, 51.6° (Epoch: 15 December)

Date Brightness Start Highest point End Pass type
(mag) Time Alt. Az. Time Alt. Az. Time Alt. Az.
15 Dec -0.8 17:57:02 10° WSW 17:58:56 15° SW 18:00:51 10° S visible
16 Dec -1.2 17:04:15 10° W 17:06:54 22° SW 17:09:31 10° SSE visible
18 Dec -0.4 16:56:59 10° WSW 16:58:28 12° SW 16:59:56 10° SSW visible
